Weather in Boroda

Russia / Smolensk Oblast     55°19′46″N   31°18′33″E
temp.,
°C
wind,
m/s
gust,
m/s
humid.,
%
clouds,
%
prec.,
mm/h
press.,
hPa
HPBL,
m
20 april, tue
tue2000:00+5ene388896 0.0 1021188
03:00+6ene1286100 0.1 101997
06:00+6e4787100 1.4 1018545
09:00+4ene5896100 1.6 1018731
12:00+4e5792100 0.1 1017719
15:00+4ene4696100 0.3 1016668
18:00+4ene4896100 0.2 1015556
21:00+5ne3794100 1.0 1013324
21 april, wed
wed2100:00+3e369075 0.1 1012323
03:00+3n238997 0.1 1011105
06:00+3nnw258996 0.0 1009200
09:00+5nw458080 0.0 1009505
12:00+8wnw356873 0.0 10081101
15:00+9w556421 0.3 10081172
18:00+9wsw456462 0.3 10081124
21:00+5sw34817 0.4 100966
22 april, thu
thu2200:00+4ssw378629 0.0 1010112
03:00+6s5117791 0.0 1010329
06:00+4s49917 0.0 1010180
09:00+9s577883 0.0 1010398
12:00+13ssw686218 1.4 10101294
15:00+14ssw686090 3.2 10091628
18:00+13sw59665 1.5 10091055
21:00+8sw34835 1.6 101065
23 april, fri
fri2300:00+6nw2292100 0.1 101034
03:00+6w5791100 6.3 1011816
06:00+4s2488100 2.6 1012328
09:00+6ssw5681100 2.6 1013751
12:00+7sw4663100 0.1 10131350
15:00+9sw4552100 0.2 10131586
18:00+8ssw2458100 0.1 1013997
21:00+5wsw2271100 0.3 101335
24 april, sat
sat2400:00+3wsw3578100 0.0 101290
03:00+2w378430 0.0 1011142
06:000w37905 0.0 1011157
09:00+3w457871 0.0 1011784
12:00+3wsw5676100 0.1 10111023
15:00+5wsw4665100 0.3 10101308
18:00+5w687384 0.8 10101095
21:00+2w4988100 0.9 1011409